Location: Ferma
(41.9500°N, 44.5167°E)
Time: 18:25:56
(UTC+00:00)

Meteor 1-4 Rocket - Pass Details

Date: 24 October 2021
Orbit: 447 x 496 km, 81.2° (Epoch: 01 December)

Event Time Altitude Azimuth Distance (km) Brightness Sun altitude
Rises 15:19:19 0° 183° (S) 2,470 6.2 -14.1°
Reaches altitude 10° 15:21:24 10° 180° (S) 1,593 5.2 -14.5°
Maximum altitude 15:24:51 68° 98° (E) 493 2.3 -15.1°
Drops below altitude 10° 15:28:17 10° 15° (NNE) 1,588 5.0 -15.8°
Sets 15:30:21 0° 13° (NNE) 2,461 6.0 -16.2°
